Location: Foots Cray
(51.4000°N, 0.1167°E)
Time: 23:47:27
(UTC+00:00)

BREEZE-M DEB (TANK) - Pass Details

Date: 15 May 2026
Orbit: 262 x 12018 km, 49.5° (Epoch: 6 June)

Event Time Altitude Azimuth Distance (km) Brightness Sun altitude
Rises 21:13:35 0° 257° (WSW) 3,217 6.6 -11.1°
Reaches altitude 10° 21:16:46 10° 253° (WSW) 1,607 5.0 -11.4°
Maximum altitude 21:19:38 50° 175° (S) 393 1.2 -11.7°
Enters shadow 21:20:43 22° 106° (ESE) 671 2.3 -11.8°
